Location: Sholden
(51.2167°N, 1.3833°E)
Time: 03:01:03
(UTC+00:00)

Daily predictions for brighter satellites

Satellite Brightness Start Highest point End
(mag) Time Altitude Azimuth Time Altitude Azimuth Time Altitude Azimuth
NOSS 2-2 (D) 4.2 00:00:06 10° NW 00:04:51 85° NE 00:11:35 10° SE
Cosmos 1461 3.0 00:01:12 10° NW 00:05:17 56° SW 00:06:31 39° S
Gblst 52 Del rocket 4.2 00:00:03 10° WSW 00:06:17 75° SSE 00:11:54 10° ENE
Cosmos 1553 Rocket 4.0 00:03:21 28° S 00:06:43 78° E 00:12:56 10° NNE
Cosmos 1867 3.8 00:05:01 31° S 00:07:26 55° ESE 00:12:47 10° NE
Cosmos 2221 Rocket 3.5 00:06:47 36° S 00:08:31 78° E 00:12:57 10° NNE
Cosmos 1674 Rocket 3.9 00:06:55 33° SSE 00:08:35 54° E 00:12:49 10° NNE
USA 306 4.4 00:11:52 21° SE 00:11:52 21° SE 00:14:43 10° E
Cosmos 1238 Rocket 1.9 00:08:45 10° N 00:11:43 84° W 00:12:06 65° S
Cosmos 1674 2.5 00:10:51 45° S 00:11:57 87° E 00:15:44 10° N
ATLAS CENTAUR R/B 2.8 00:09:02 10° WNW 00:13:08 28° WSW 00:13:59 26° SW
USA 307 4.4 00:15:20 20° SE 00:15:20 20° SE 00:18:06 10° E
SL-19 R/B 4.0 00:17:33 47° WSW 00:17:48 48° WSW 00:20:41 10° NNW
SL-16 R/B 4.4 00:17:14 10° ESE 00:19:28 12° E 00:21:43 10° ENE
Cosmos 468 4.4 00:16:28 10° NNW 00:21:43 76° WSW 00:24:27 29° SSE
ATLAS 5 CENTAUR R/B 3.4 00:06:47 10° NW 00:21:46 67° SW 00:24:39 25° SSE
CZ-4C R/B 3.1 00:14:58 10° NW 00:22:00 59° SW 00:27:52 20° SSE
Cosmos 2322 Rocket 3.8 00:17:08 10° WSW 00:22:03 30° NW 00:27:00 10° NNE
Cosmos 2333 Rocket 2.6 00:19:42 19° SW 00:23:43 61° NW 00:29:22 10° NNE
Cosmos 1378 Rocket 3.6 00:22:19 35° S 00:24:08 74° E 00:28:35 10° NNE
Cosmos 2322 3.8 00:20:47 24° SW 00:24:22 77° WNW 00:30:09 10° NNE
Cosmos 1844 Rocket 4.5 00:21:25 10° WNW 00:24:40 16° W 00:26:32 14° WSW
USA 215 3.3 00:20:24 10° ENE 00:26:58 81° NNW 00:33:32 10° WSW
NOSS 0 Rocket 4.2 00:29:23 27° S 00:32:43 56° ESE 00:38:49 10° NE
PSLV R/B 3.8 00:28:34 10° N 00:32:55 67° WNW 00:35:01 30° SW
Meteor 2-10 Rocket 4.1 00:31:30 10° N 00:37:10 61° ENE 00:41:17 18° SSE
USA 32 4.4 00:35:15 24° SSE 00:38:16 57° E 00:43:26 10° NNE
Cosmos 2151 Rocket 4.2 00:35:05 10° NNW 00:39:14 42° W 00:40:53 30° SW
Cosmos 1745 Rocket 4.0 00:34:42 10° NNW 00:40:56 71° W 00:44:35 26° S
Cosmos 1975 Rocket 4.4 00:39:39 18° SE 00:42:09 32° E 00:46:08 10° NNE
Cosmos 839 Rocket 4.1 00:36:10 10° NW 00:42:27 73° SW 00:49:12 12° SSE
Okean 2 Rocket 4.1 00:39:22 10° NNW 00:43:30 35° W 00:45:14 26° SW
Okean 2 4.2 00:42:13 26° SW 00:43:59 40° WNW 00:47:53 10° N
ADEOS Rocket 4.0 00:42:18 21° SW 00:44:58 30° W 00:50:10 10° NNW
USA 308 3.8 00:44:46 29° SSE 00:45:24 30° SE 00:49:05 10° ENE
Cosmos 2219 Rocket 2.7 00:42:56 18° SW 00:47:00 53° NW 00:52:31 10° NNE
Meteor 2-12 Rocket 4.4 00:42:26 10° NNW 00:48:33 83° W 00:52:26 24° S
Cosmos 1025 Rocket 4.4 00:47:03 17° SE 00:49:37 30° E 00:53:23 10° NNE
GP-B 3.2 00:51:14 10° N 00:55:41 70° E 00:58:07 26° SSE
CZ-2D R/B 3.3 00:53:47 10° NNE 00:58:41 34° E 01:02:28 15° SSE
Cosmos 1300 2.6 00:56:06 10° NNW 00:59:54 75° W 01:01:27 34° S
Lacrosse 5 3.4 00:58:31 18° SSE 01:00:17 21° SE 01:04:06 10° ENE
ASTEX 1 4.4 00:57:55 10° N 01:02:22 36° WNW 01:05:06 20° SW
SL-14 R/B 3.3 01:02:27 33° SSW 01:04:04 70° WNW 01:07:56 10° N
USA 267 4.1 01:02:14 23° SSW 01:04:36 29° SW 01:10:10 10° WNW
USA 305 3.2 01:07:08 31° SSW 01:08:42 48° SSE 01:12:44 10° ENE
Cosmos 371 Rocket 3.3 01:06:03 27° SSW 01:08:45 83° WNW 01:13:39 10° NNE
Cosmos 2150 Rocket 4.0 01:06:08 25° SSW 01:09:10 81° WNW 01:14:22 10° NNE
USA 229 DEB 4.2 01:02:18 10° NW 01:09:15 47° WSW 01:15:06 17° S
USA 229 4.2 01:02:24 10° NW 01:09:21 47° WSW 01:15:15 16° S
Cosmos 2237 Rocket 2.2 01:11:28 24° SSW 01:15:01 81° ESE 01:20:45 10° NNE
COSMOS 2428 3.5 01:12:17 15° WSW 01:16:45 47° NW 01:22:15 10° NNE
Cosmos 1437 Rocket 4.0 01:15:05 10° NW 01:18:14 26° W 01:19:16 22° WSW
Cosmos 405 Rocket 3.9 01:18:03 21° WSW 01:19:47 31° WNW 01:23:13 10° N
Cosmos 304 Rocket 3.8 01:17:17 26° SSW 01:20:03 82° ESE 01:24:55 10° NNE
SL-16 R/B 2.8 01:15:18 10° SSE 01:21:28 71° ENE 01:27:42 10° NNW
Okean 1 Rocket 4.1 01:18:18 10° NNW 01:22:12 31° W 01:24:05 22° SW
Lacrosse 5 rocket 3.2 01:21:54 14° SSE 01:23:08 16° SE 01:25:33 10° E
Cosmos 1125 Rocket 3.7 01:20:01 22° SW 01:23:21 62° WNW 01:28:33 10° NNE
Cosmos 1953 3.6 01:21:38 10° NNW 01:25:00 26° W 01:26:26 21° WSW
SME Rocket 3.3 01:24:34 23° S 01:27:01 64° WSW 01:32:19 10° NNW
Cosmos 2074 Rocket 4.3 01:21:06 10° N 01:27:23 68° ENE 01:33:40 10° SSE
Cosmos 2360 Rocket 4.4 01:23:40 10° W 01:27:45 20° NW 01:31:52 10° NNE
Resurs 1-4 Rocket 2.5 01:22:50 10° NNE 01:28:03 58° E 01:31:56 18° S
Cosmos 2297 3.9 01:26:11 10° NNW 01:31:58 75° ENE 01:37:43 10° SE
Cosmos 1943 Rocket 2.2 01:26:18 10° NNW 01:32:01 90° NE 01:37:42 10° SSE
Cosmos 1709 Rocket 4.4 01:29:29 10° NNW 01:35:18 46° W 01:39:17 20° SSW
MOZ.5/SAFIR/RUBIN 5/SL-8 4.3 01:33:59 22° SSW 01:36:38 45° W 01:41:13 10° NNW
Cosmos 1626 4.4 01:36:40 10° W 01:38:43 14° WNW 01:40:47 10° NNW
Cosmos 2315 Rocket 4.2 01:35:34 20° SSW 01:40:05 62° WNW 01:46:27 10° N
Cosmos 2184 Rocket 4.1 01:36:00 10° N 01:42:19 82° E 01:48:31 10° SSE
EO 1 Delta rocket 4.3 01:38:13 10° N 01:42:42 50° WNW 01:46:02 19° SW
Cosmos 2278 Rocket 3.3 01:38:11 10° NW 01:42:48 26° WSW 01:45:23 19° SW
ADEOS II 2.9 01:38:52 10° NNE 01:43:55 44° E 01:48:40 11° S
IDEFIX/ARIANE 42P 3.7 01:39:50 10° NNE 01:44:46 38° E 01:49:40 10° SSE
USA 306 2.8 01:47:34 18° WSW 01:50:38 77° SSE 01:54:48 10° ENE
Cosmos 2084 Rocket 3.4 01:49:15 23° SSW 01:51:28 58° SE 01:55:13 10° NE
Thor Agena Rocket 4.0 01:47:05 10° N 01:52:14 55° WNW 01:56:09 17° SW
USA 307 2.8 01:51:04 18° SW 01:54:07 73° SSE 01:58:18 10° ENE
NPP 3.7 01:50:40 10° NNE 01:56:06 80° ESE 02:00:36 15° SSW
ERBS 1.9 01:54:54 23° SW 01:56:37 81° SSE 01:59:42 10° ENE
Cosmos 2369 Rocket 2.7 01:51:41 10° NNW 01:57:16 62° NE 02:02:48 10° SE
Gblst 52 Del rocket 4.2 01:52:08 10° W 01:58:03 87° N 02:03:34 10° E
USA-17 4.5 01:55:22 10° NW 01:58:34 86° NE 02:02:36 10° SE
Cosmos 1455 Rocket 3.9 01:56:29 10° NNW 02:00:32 35° W 02:03:14 18° SW
Cosmos 614 Rocket 4.0 01:55:47 10° NNW 02:01:00 89° ENE 02:06:14 10° SSE
CZ-4 R/B 3.8 01:56:26 10° NNE 02:01:06 77° WNW 02:04:41 17° SSW
Cosmos 2228 4.0 01:56:55 10° N 02:01:11 48° ENE 02:05:23 10° SSE
EO 1 Del DPAF 4.1 01:58:51 10° NNE 02:02:11 40° E 02:05:16 12° S
SL-16 R/B 2.4 01:58:00 16° SSW 02:02:31 69° ESE 02:08:10 10° NNE
Cosmos 2251 Rocket 4.0 01:57:44 10° NNW 02:02:59 62° ENE 02:08:12 10° SE
Cosmos 1656 Rocket 4.3 02:01:17 10° NNW 02:06:40 58° NE 02:12:00 10° SE
Cosmos 1980 4.4 02:02:27 13° WSW 02:07:16 46° NW 02:12:44 10° NNE
Meteor 1-28 Rocket 3.1 02:03:44 10° SSE 02:07:29 89° ENE 02:11:14 10° NNW
Cosmos 2333 Rocket 4.4 02:05:19 10° WNW 02:09:13 19° NNW 02:13:09 10° NNE
CZ-4C R/B 4.5 02:05:14 10° WNW 02:09:39 16° WSW 02:12:59 13° SW
USA 215 4.0 02:03:22 10° ENE 02:09:43 55° N 02:16:04 10° W
COSMOS 2455 3.6 02:04:48 12° S 02:10:01 45° ESE 02:15:44 10° NE
Cosmos 332 Rocket 4.4 02:07:03 15° SW 02:10:45 47° WNW 02:15:25 10° NNE
NOSS 3 (A) 3.9 02:10:22 31° W 02:10:50 44° NW 02:12:37 10° NE
Cosmos 1536 Rocket 3.7 02:08:03 12° S 02:12:02 72° E 02:16:25 10° NNE
Cosmos 1975 Rocket 4.2 02:16:47 14° SW 02:19:59 32° WNW 02:24:02 10° N
Nadezhda 1 Rocket 4.1 02:15:12 10° S 02:21:34 84° E 02:27:53 10° N
Meteor 1-24 Rocket 4.0 02:17:03 14° SSW 02:21:45 56° WNW 02:27:06 10° N
MSX 4.3 02:16:14 10° NNE 02:21:57 60° ESE 02:27:39 10° S
UNK 4.1 02:19:09 12° S 02:23:13 45° W 02:27:40 10° NNW
Cosmos 1455 2.7 02:20:57 10° NNW 02:24:26 40° W 02:27:22 13° SSW
USA 308 2.9 02:20:32 10° WSW 02:24:44 85° NNW 02:28:57 10° ENE
Cosmos 1025 Rocket 4.1 02:23:55 14° SW 02:27:10 32° WNW 02:31:05 10° N
MOS 1 Rocket 3.4 02:23:22 11° S 02:27:16 46° W 02:31:27 10° NNW
Cosmos 1271 Rocket 2.7 02:24:31 10° NNW 02:28:18 65° W 02:32:07 10° S
Cosmos 2219 Rocket 4.5 02:28:46 10° WNW 02:32:18 17° NNW 02:35:51 10° N
Cosmos 1606 Rocket 4.0 02:27:59 10° N 02:32:25 66° ENE 02:36:46 10° SSE
ALOS 4.5 02:32:20 10° NE 02:36:02 23° E 02:39:41 10° SE
CZ-2D R/B 2.8 02:33:45 10° N 02:38:50 44° WNW 02:43:47 10° SW
Lacrosse 5 1.9 02:37:42 11° SW 02:42:39 80° SE 02:47:46 10° ENE
Helios 1B rocket 3.9 02:39:21 10° NNE 02:43:05 34° E 02:46:48 10° SSE
Cosmos 2341 Rocket 4.2 02:38:41 10° N 02:45:08 84° E 02:51:32 10° S
USA 305 3.2 02:44:03 10° W 02:48:13 68° NNW 02:52:24 10° ENE
Cosmos 2154 Rocket 4.4 02:42:24 10° NNW 02:48:29 49° W 02:54:30 10° SSW
Meteor 2-1 Rocket 4.3 02:43:53 10° NNW 02:49:43 89° WSW 02:55:23 10° S
BREEZE-M DEB (TANK) 4.4 02:47:40 10° SSW 02:50:50 18° SSE 02:52:47 10° ESE
Cosmos 407 Rocket 3.6 02:45:35 10° NNW 02:50:57 85° ENE 02:56:15 10° SSE
SL-8 Rocket 4.2 02:45:30 10° N 02:51:52 80° E 02:58:12 10° SSE
Cosmos 1943 3.9 02:52:03 10° S 02:57:34 53° ESE 03:03:06 10° NE
Cosmos 1328 4.2 02:53:46 10° S 02:57:41 64° E 03:01:39 10° NNE
Helios 1A 3.8 02:54:13 10° SSW 02:58:00 32° W 03:01:49 10° NNW
Genesis I 3.2 02:54:29 10° NW 02:58:35 82° SW 03:02:34 10° SE
Cosmos 2237 Rocket 3.8 02:55:00 10° W 02:59:45 26° NW 03:04:32 10° NNE
Lacrosse 5 rocket 1.3 02:57:37 10° SW 03:01:32 76° SE 03:05:42 10° ENE
Cosmos 1140 Rocket 3.5 02:56:38 10° NNW 03:01:54 77° WSW 03:07:08 10° SSE
ATLAS 2AS CENTAUR R/B 4.5 02:57:35 10° NW 03:04:25 37° NNE 03:10:48 10° E
SL-16 R/B 3.7 03:00:38 10° SW 03:05:38 25° W 03:10:42 10° NW
Resurs 1-4 Rocket 3.4 03:03:12 10° N 03:07:33 27° WNW 03:11:53 10° WSW
NOSS 3-4 (A) 4.4 03:02:34 10° NW 03:09:16 66° NE 03:16:52 10° ESE
NOSS 3-4 (C) 4.4 03:02:38 10° NW 03:09:20 65° NE 03:16:54 10° ESE
Lacrosse 4 Rocket 4.1 03:07:52 10° SE 03:09:56 13° ESE 03:12:01 10° ENE
Cosmos 1892 Rocket 3.9 03:07:03 10° S 03:11:28 72° E 03:15:58 10° NNE
